This is the latest recevied weather packets stored in our database for station/object OE-11204. If no packets are shown the sender has not sent any weather packets the latest 10 day(s).
| Time | Temp. | Humidity | Pressure | Rain* | Wind** | Luminosity | Snow |
|---|---|---|---|---|---|---|---|
| 1787658088 | 18.89° C | 81% | 1012.4 hPa | 0.25 mm | - | 340 W/m² | - |
| 1787657714 | 18.33° C | 82% | 1012.4 hPa | 0.25 mm | - | 371 W/m² | - |
| 1787657114 | 18.33° C | 83% | 1012.3 hPa | 0.25 mm | - | 483 W/m² | - |
| 1787654488 | 17.78° C | 84% | 1012.4 hPa | 0.25 mm | - | 142 W/m² | - |
| 1787654111 | 17.78° C | 82% | 1012.4 hPa | 0 mm | - | 124 W/m² | - |
| 1787652314 | 17.78° C | 81% | 1012.4 hPa | 0 mm | - | 155 W/m² | - |
| 1787651714 | 17.78° C | 81% | 1012.4 hPa | 0 mm | - | 179 W/m² | - |
| 1787650888 | 17.78° C | 80% | 1012.4 hPa | 0 mm | - | 266 W/m² | - |
| 1787650515 | 17.78° C | 82% | 1012.6 hPa | 0 mm | - | 309 W/m² | - |
| 1787649915 | 17.78° C | 81% | 1012.7 hPa | 0 mm | - | 297 W/m² | - |
| 1787649087 | 17.22° C | 81% | 1013.1 hPa | 0 mm | - | 322 W/m² | - |
| 1787648715 | 17.22° C | 85% | 1013.1 hPa | 0 mm | - | 241 W/m² | - |
| 1787648115 | 16.67° C | 83% | 1013.2 hPa | 0 mm | - | 291 W/m² | - |
| 1787647287 | 16.67° C | 87% | 1013.3 hPa | 0.25 mm | - | 272 W/m² | - |
| 1787646915 | 16.67° C | 86% | 1013.3 hPa | 0.25 mm | - | 340 W/m² | - |
| 1787646315 | 16.67° C | 89% | 1013.5 hPa | 0.51 mm | - | 198 W/m² | - |
| 1787645487 | 16.11° C | 89% | 1013.6 hPa | 0.51 mm | - | 155 W/m² | - |
| 1787645115 | 16.11° C | 90% | 1013.6 hPa | 0.51 mm | - | 186 W/m² | - |
| 1787644515 | 15.56° C | 90% | 1013.7 hPa | 0.51 mm | - | 161 W/m² | - |
| 1787643688 | 15.56° C | 90% | 1013.8 hPa | 0.51 mm | - | 136 W/m² | - |
| 1787643315 | 15.56° C | 90% | 1013.7 hPa | 0.76 mm | - | 136 W/m² | - |
| 1787642715 | 15.56° C | 92% | 1013.8 hPa | 1.02 mm | - | 93 W/m² | - |
| 1787641888 | 15.56° C | 91% | 1013.9 hPa | 1.52 mm | - | 99 W/m² | - |
| 1787641514 | 15° C | 91% | 1014 hPa | 1.78 mm | - | 80 W/m² | - |
| 1787640914 | 15° C | 91% | 1014 hPa | 2.29 mm | - | 50 W/m² | - |
* Rain latest hour (hover to see other rain measurements)
** Current wind speed in m/s (hover to see current wind gust speed)